• In Deutschland
  • Länderverzeichnis
  • Für 7 Tage
  • Wassertemperatur
  • Satellitenkarten
  • Wetterkarte
  • Widgets
  • user-avatar
    Anmelden

    Stündliche Wetter Mykhalkove

    Heute, 25 Mai, Freitag

    Zeit Temperatur Niederschläge Wind Luftdruck Luftfeuchtigkeit
    00:00 +17°C° 0,1 mm 3 m/S 742 mmHg 85%
    01:00 +16°C° 0,1 mm 2 m/S 742 mmHg 86%
    02:00 +16°C° 0 mm 2 m/S 741 mmHg 88%
    03:00 +16°C° 0,2 mm 2 m/S 741 mmHg 89%
    04:00 +16°C° 0,2 mm 2 m/S 741 mmHg 90%
    05:00 +16°C° 0,2 mm 2 m/S 742 mmHg 90%
    06:00 +17°C° 0,2 mm 2 m/S 742 mmHg 86%
    07:00 +19°C° 0,2 mm 2 m/S 742 mmHg 81%
    08:00 +20°C° 0,2 mm 2 m/S 742 mmHg 77%
    09:00 +22°C° 0,3 mm 3 m/S 742 mmHg 69%
    10:00 +24°C° 0,3 mm 3 m/S 742 mmHg 62%
    11:00 +26°C° 0,3 mm 3 m/S 742 mmHg 54%
    12:00 +26°C° 0,1 mm 3 m/S 742 mmHg 53%
    13:00 +27°C° 0,1 mm 3 m/S 742 mmHg 52%
    14:00 +27°C° 0,1 mm 3 m/S 742 mmHg 50%
    15:00 +27°C° 0 mm 3 m/S 742 mmHg 53%
    16:00 +26°C° 0 mm 3 m/S 742 mmHg 56%
    17:00 +26°C° 0 mm 4 m/S 742 mmHg 58%
    18:00 +23°C° 0,2 mm 4 m/S 743 mmHg 65%
    19:00 +22°C° 0,2 mm 3 m/S 743 mmHg 72%
    20:00 +20°C° 0,2 mm 3 m/S 743 mmHg 79%
    21:00 +19°C° 0 mm 3 m/S 744 mmHg 81%
    22:00 +18°C° 0 mm 3 m/S 744 mmHg 84%
    23:00 +18°C° 0 mm 3 m/S 744 mmHg 86%

    Morgen, 26 Mai, Samstag

    Zeit Temperatur Niederschläge Wind Luftdruck Luftfeuchtigkeit
    00:00 +17°C° 0 mm 3 m/S 744 mmHg 88%
    01:00 +16°C° 0 mm 3 m/S 745 mmHg 90%
    02:00 +16°C° 0 mm 3 m/S 745 mmHg 91%
    03:00 +16°C° 0 mm 3 m/S 745 mmHg 92%
    04:00 +14°C° 0 mm 3 m/S 745 mmHg 94%
    05:00 +14°C° 0 mm 3 m/S 745 mmHg 95%
    06:00 +16°C° 0 mm 3 m/S 746 mmHg 90%
    07:00 +18°C° 0 mm 4 m/S 746 mmHg 84%
    08:00 +19°C° 0 mm 4 m/S 746 mmHg 79%
    09:00 +20°C° 0 mm 4 m/S 746 mmHg 73%
    10:00 +22°C° 0 mm 5 m/S 746 mmHg 67%
    11:00 +23°C° 0 mm 5 m/S 746 mmHg 61%
    12:00 +23°C° 0 mm 5 m/S 746 mmHg 59%
    13:00 +23°C° 0 mm 5 m/S 746 mmHg 58%
    14:00 +23°C° 0 mm 6 m/S 746 mmHg 56%
    15:00 +23°C° 0 mm 6 m/S 746 mmHg 58%
    16:00 +22°C° 0 mm 5 m/S 746 mmHg 59%
    17:00 +22°C° 0 mm 5 m/S 746 mmHg 61%
    18:00 +20°C° 0 mm 5 m/S 746 mmHg 65%
    19:00 +19°C° 0 mm 4 m/S 747 mmHg 69%
    20:00 +17°C° 0 mm 4 m/S 747 mmHg 73%
    21:00 +15°C° 0 mm 4 m/S 747 mmHg 74%
    22:00 +14°C° 0 mm 3 m/S 747 mmHg 75%
    23:00 +13°C° 0 mm 3 m/S 747 mmHg 76%

    übermorgen, 27 Mai, Sonntag

    Zeit Temperatur Niederschläge Wind Luftdruck Luftfeuchtigkeit
    00:00 +13°C° 0 mm 3 m/S 747 mmHg 79%
    01:00 +12°C° 0 mm 3 m/S 747 mmHg 81%
    02:00 +12°C° 0 mm 2 m/S 747 mmHg 84%
    03:00 +11°C° 0 mm 3 m/S 747 mmHg 83%
    04:00 +11°C° 0 mm 3 m/S 747 mmHg 82%
    05:00 +11°C° 0 mm 3 m/S 747 mmHg 81%
    06:00 +12°C° 0 mm 3 m/S 747 mmHg 78%
    07:00 +13°C° 0 mm 3 m/S 747 mmHg 74%
    08:00 +14°C° 0 mm 4 m/S 748 mmHg 71%
    09:00 +15°C° 0 mm 4 m/S 748 mmHg 69%
    10:00 +17°C° 0 mm 4 m/S 748 mmHg 66%
    11:00 +18°C° 0 mm 4 m/S 747 mmHg 64%
    12:00 +19°C° 0 mm 3 m/S 747 mmHg 63%
    13:00 +20°C° 0 mm 3 m/S 747 mmHg 62%
    14:00 +20°C° 0 mm 3 m/S 747 mmHg 60%
    15:00 +20°C° 0 mm 3 m/S 746 mmHg 60%
    16:00 +21°C° 0 mm 3 m/S 746 mmHg 59%
    17:00 +21°C° 0 mm 3 m/S 746 mmHg 59%
    18:00 +20°C° 0 mm 3 m/S 746 mmHg 62%
    19:00 +19°C° 0 mm 2 m/S 746 mmHg 66%
    20:00 +18°C° 0 mm 2 m/S 746 mmHg 70%
    21:00 +17°C° 0 mm 2 m/S 746 mmHg 72%
    22:00 +16°C° 0 mm 3 m/S 746 mmHg 75%
    23:00 +14°C° 0 mm 3 m/S 747 mmHg 78%

    28 Mai, Montag

    Zeit Temperatur Niederschläge Wind Luftdruck Luftfeuchtigkeit
    00:00 +13°C° 0 mm 3 m/S 747 mmHg 79%
    01:00 +12°C° 0 mm 3 m/S 747 mmHg 81%
    02:00 +12°C° 0 mm 3 m/S 746 mmHg 82%
    03:00 +11°C° 0 mm 3 m/S 747 mmHg 82%
    04:00 +11°C° 0 mm 3 m/S 747 mmHg 82%
    05:00 +11°C° 0 mm 3 m/S 747 mmHg 83%
    06:00 +12°C° 0 mm 3 m/S 747 mmHg 78%
    07:00 +14°C° 0 mm 4 m/S 747 mmHg 73%
    08:00 +17°C° 0 mm 4 m/S 747 mmHg 68%
    09:00 +18°C° 0 mm 4 m/S 747 mmHg 63%
    10:00 +19°C° 0 mm 4 m/S 748 mmHg 58%
    11:00 +21°C° 0 mm 4 m/S 748 mmHg 53%
    12:00 +21°C° 0 mm 4 m/S 747 mmHg 51%
    13:00 +22°C° 0 mm 4 m/S 747 mmHg 49%
    14:00 +22°C° 0 mm 4 m/S 747 mmHg 46%
    15:00 +22°C° 0 mm 4 m/S 747 mmHg 49%
    16:00 +22°C° 0 mm 4 m/S 747 mmHg 51%
    17:00 +22°C° 0 mm 4 m/S 747 mmHg 53%
    18:00 +20°C° 0 mm 4 m/S 747 mmHg 59%
    19:00 +18°C° 0 mm 3 m/S 747 mmHg 66%
    20:00 +17°C° 0 mm 3 m/S 747 mmHg 73%
    21:00 +16°C° 0 mm 3 m/S 747 mmHg 75%
    22:00 +14°C° 0 mm 3 m/S 747 mmHg 77%
    23:00 +13°C° 0 mm 3 m/S 747 mmHg 80%

    29 Mai, Dienstag

    Zeit Temperatur Niederschläge Wind Luftdruck Luftfeuchtigkeit
    00:00 +13°C° 0 mm 3 m/S 747 mmHg 81%
    01:00 +12°C° 0 mm 3 m/S 748 mmHg 83%
    02:00 +12°C° 0 mm 3 m/S 748 mmHg 84%
    03:00 +12°C° 0 mm 3 m/S 748 mmHg 85%
    04:00 +11°C° 0 mm 3 m/S 748 mmHg 87%
    05:00 +11°C° 0 mm 3 m/S 748 mmHg 88%
    06:00 +13°C° 0 mm 3 m/S 748 mmHg 82%
    07:00 +15°C° 0 mm 4 m/S 748 mmHg 76%
    08:00 +19°C° 0 mm 4 m/S 748 mmHg 70%
    09:00 +20°C° 0 mm 4 m/S 748 mmHg 65%
    10:00 +21°C° 0 mm 5 m/S 748 mmHg 59%
    11:00 +23°C° 0 mm 5 m/S 748 mmHg 54%
    12:00 +23°C° 0 mm 5 m/S 747 mmHg 53%
    13:00 +25°C° 0 mm 5 m/S 747 mmHg 51%
    14:00 +26°C° 0 mm 5 m/S 747 mmHg 50%
    15:00 +25°C° 0 mm 5 m/S 747 mmHg 52%
    16:00 +25°C° 0 mm 5 m/S 746 mmHg 54%
    17:00 +25°C° 0 mm 5 m/S 746 mmHg 56%
    18:00 +23°C° 0 mm 4 m/S 746 mmHg 62%
    19:00 +21°C° 0 mm 4 m/S 746 mmHg 68%
    20:00 +19°C° 0 mm 4 m/S 746 mmHg 74%
    21:00 +18°C° 0 mm 4 m/S 746 mmHg 73%
    22:00 +17°C° 0 mm 4 m/S 746 mmHg 73%
    23:00 +15°C° 0 mm 4 m/S 746 mmHg 73%

    30 Mai, Mittwoch

    Zeit Temperatur Niederschläge Wind Luftdruck Luftfeuchtigkeit
    00:00 +14°C° 0 mm 4 m/S 746 mmHg 75%
    01:00 +14°C° 0 mm 3 m/S 746 mmHg 77%
    02:00 +13°C° 0 mm 3 m/S 746 mmHg 79%
    03:00 +13°C° 0 mm 3 m/S 746 mmHg 81%
    04:00 +12°C° 0 mm 3 m/S 746 mmHg 83%
    05:00 +12°C° 0 mm 3 m/S 746 mmHg 84%
    06:00 +13°C° 0 mm 3 m/S 746 mmHg 78%
    07:00 +16°C° 0 mm 3 m/S 746 mmHg 73%
    08:00 +18°C° 0 mm 3 m/S 746 mmHg 67%
    09:00 +19°C° 0 mm 3 m/S 746 mmHg 60%
    10:00 +21°C° 0 mm 3 m/S 746 mmHg 54%
    11:00 +22°C° 0 mm 3 m/S 746 mmHg 47%
    12:00 +24°C° 0 mm 3 m/S 746 mmHg 46%
    13:00 +25°C° 0 mm 4 m/S 745 mmHg 44%
    14:00 +25°C° 0 mm 4 m/S 745 mmHg 42%
    15:00 +25°C° 0 mm 4 m/S 745 mmHg 44%
    16:00 +25°C° 0 mm 3 m/S 744 mmHg 45%
    17:00 +25°C° 0 mm 3 m/S 744 mmHg 47%
    18:00 +22°C° 0 mm 3 m/S 744 mmHg 54%
    19:00 +20°C° 0 mm 3 m/S 744 mmHg 60%
    20:00 +18°C° 0 mm 2 m/S 744 mmHg 67%
    21:00 +17°C° 0 mm 2 m/S 744 mmHg 69%
    22:00 +17°C° 0 mm 2 m/S 744 mmHg 72%
    23:00 +16°C° 0 mm 2 m/S 744 mmHg 74%
    Mehr zeigen